CZ-3B DEB, 40850

Orbit data source: Space-Track

CZ-3B DEB, 40850 is space debris in HEO originally from a launch on Mon, 19 Dec 2011 UTC launched from the Xichang Space Center, China (XSC). Debris objects in space refer to the collection of defunct objects orbiting the Earth. Examples of debris include non-operational satellites, rocket bodies, and fragments generated from explosions, collisions, or faulty payload assembly.

Loading next visibility...
CZ-3B DEB details
Identifier
40850, 2011-077AF
Orbit
HEO
Last TLE update1 day ago
Origin
Flag of CNCASC (CN / PRC)
ManufacturerCALT
MissionSpacecraft
Bus & MotorUnknown
MassUnknown
Launch date (UTC)
2011-12-19 (13 years ago)
Launch vehicleUnknown
Launch site
Xichang Space Center, China (XSC)
Object type
Payload
Rocket body
Debris
Shape & HBRUnknown
Radar Cross SectionMedium (>0.1 m² and <1 m²)

Expand to show TLE details & history

TLE from 1 day ago
0 CZ-3B DEB
1 40850U 11077AF  24360.25877352  .00000246  00000-0  28457-2 0  9997
2 40850  25.6866  35.9797 7463488 356.9861   0.4734  1.92570958 68895
Epoch: 2024-12-25T06:12Z
Definitive object data (Epoch: 2024-12-25T06:12:38.032Z)
Latitude0.00023°
Longitude-151.42813°
Altitude561.851 km
Speed10.013 km/s
True Right ascension02h 23m 56s
True Declination0° 00' 01"
Sunlit
Object was in full shadow at TLE epoch
Visualization TLE readout
Latitude5.67936°
Longitude16.31478°
Altitude38,885.328 km
Speed1.734 km/s
Apparent Right ascension13h 51m 38s
Apparent Declination0° 33' 40"
Sunlit
Object is in daylight
Visualization observer readout
Local Sidereal Time11:03:13
Azimuth124.948° SE
Elevation35.122°
Doppler factor1
Orbital elements
Apogee altitude41,287.105 km
Perigee altitude545.077 km
Semi-major axis27,294.228 km
Eccentricity0.7463488
Inclination25.6866°
RAAN35.9797°
Arg. of periapsis356.9861°
True anomaly4.89201°
Mean anomaly0.4734°
Eccentric anomaly1.86537°
Mean motion0.48132 °/min
BSTAR0.0028457
Orbital period747.94 mins
Loading maneuver chart data...
Loading historical data...
Loading historical data...
Loading historical data...
Loading historical data...
Loading historical data...
Loading historical data...
Loading historical data...

CZ-3B DEB Visibility forecast

Observer location: undefined°, undefined

Span
Click to sort rows by Start time (UTC) header in descending order
Start Az.
Max El. time (UTC)
Max El. Az.
Max El.
End time (UTC)
End Az.
414 mins2024-12-26 11:41:50.177Z124.963° SE2024-12-26 14:06:50.177Z156.782° SSE33.087°2024-12-26 18:35:50.177Z180.43° SSW
204 mins2024-12-27 08:17:50.177Z235.639° WSW2024-12-27 08:30:50.177Z164.464° S40.954°2024-12-27 11:41:50.177Z130.632° SE
|